Weather History for KFWC - January, 2014

Change the Weather History Date:

Friday, January 31, 2014

  Actual Average (KMVN) Record (KMVN)
Temperature  
Mean Temperature 37 °F -  
Max Temperature 41 °F 39 °F 59 °F (2002)
Min Temperature 33 °F 24 °F -7 °F (2004)
Degree Days  
Heating Degree Days 28    
Moisture  
Dew Point 20 °F    
Average Humidity 55    
Maximum Humidity 100    
Minimum Humidity 31    
Precipitation  
Precipitation 0.02 in - - ()
Sea Level Pressure  
Sea Level Pressure 30.05 in    
Wind  
Wind Speed 4 mph (SE)    
Max Wind Speed 8 mph    
Max Gust Speed -    
Visibility 8 miles    
Events      
Averages and records for this station are not official NWS values.
T = Trace of Precipitation, MM = Missing Value Source: NWS Daily Summary

Daily Weather History Graph

Daily Weather History Graph

Search for Another Location

Airport or City:

Trip Planner

Search our weather history database for the weather conditions in past years. The results will help you decide how hot, cold, wet, or windy it might be!

Date:

Astronomy

Jan. 31, 2014 Rise Set
Actual Time 6:59 AM CST 5:15 PM CST
Civil Twilight 6:31 AM CST 5:42 PM CST
Nautical Twilight 6:00 AM CST 6:14 PM CST
Astronomical Twilight 5:28 AM CST 6:45 PM CST
Moon 7:10 AM CST (1/31) 6:37 PM CST (1/31)
Length of Visible Light 11h 11m
Length of Day
10h 15m
New Moon, 1% of the Moon is Illuminated
Jan 31
New Moon
Feb 6
First Quarter
Feb 14
Full
Feb 22
Last Quarter
Mar 1
New

Hourly Weather History & Observations

Time (CST) Temp. Windchill Dew Point Humidity Pressure Visibility Wind Dir Wind Speed Gust Speed Precip Events Conditions
12:35 AM 37.4 °F 33.8 °F 15.8 °F 41% 30.00 in 10.0 mi South 4.6 mph - N/A   Mostly Cloudy
12:55 AM 35.6 °F 31.7 °F 15.8 °F 44% 29.98 in 10.0 mi South 4.6 mph - N/A   Unknown
1:15 AM 37.4 °F 33.8 °F 15.8 °F 41% 30.00 in 10.0 mi SSW 4.6 mph - N/A   Unknown
1:35 AM 37.4 °F 33.8 °F 14.0 °F 38% 30.01 in 10.0 mi SSW 4.6 mph - N/A   Clear
1:55 AM 37.4 °F 33.8 °F 12.2 °F 36% 30.00 in 10.0 mi SSW 4.6 mph - N/A   Clear
2:15 AM 37.4 °F 32.8 °F 12.2 °F 36% 30.00 in 10.0 mi SW 5.8 mph - N/A   Mostly Cloudy
2:35 AM 37.4 °F 32.1 °F 12.2 °F 36% 30.01 in 10.0 mi WSW 6.9 mph - N/A   Overcast
2:55 AM 37.4 °F 31.4 °F 10.4 °F 33% 30.02 in 10.0 mi SW 8.1 mph - N/A   Overcast
3:15 AM 37.4 °F 32.1 °F 10.4 °F 33% 30.03 in 10.0 mi SW 6.9 mph - N/A   Overcast
3:35 AM 37.4 °F 32.8 °F 10.4 °F 33% 30.03 in 10.0 mi SW 5.8 mph - N/A   Overcast
3:55 AM 37.4 °F 33.8 °F 10.4 °F 33% 30.04 in 10.0 mi SW 4.6 mph - N/A   Overcast
4:15 AM 37.4 °F 33.8 °F 12.2 °F 36% 30.04 in 10.0 mi SW 4.6 mph - N/A   Overcast
4:35 AM 37.4 °F 33.8 °F 12.2 °F 36% 30.04 in 10.0 mi SSW 4.6 mph - N/A   Overcast
4:55 AM 35.6 °F 32.8 °F 14.0 °F 41% 30.04 in 10.0 mi SSW 3.5 mph - N/A   Overcast
5:15 AM 35.6 °F 32.8 °F 14.0 °F 41% 30.04 in 10.0 mi SSW 3.5 mph - N/A   Overcast
5:35 AM 35.6 °F 32.8 °F 14.0 °F 41% 30.04 in 10.0 mi South 3.5 mph - N/A   Mostly Cloudy
5:55 AM 33.8 °F 30.8 °F 14.0 °F 44% 30.05 in 10.0 mi South 3.5 mph - N/A   Scattered Clouds
6:15 AM 33.8 °F - 15.8 °F 48% 30.05 in 10.0 mi Calm Calm - N/A   Unknown
6:35 AM 33.8 °F - 14.0 °F 44% 30.05 in 10.0 mi Calm Calm - N/A   Unknown
6:55 AM 33.8 °F 30.8 °F 15.8 °F 48% 30.06 in 10.0 mi South 3.5 mph - N/A   Unknown
7:15 AM 33.8 °F - 14.0 °F 44% 30.07 in 10.0 mi Calm Calm - N/A   Overcast
7:35 AM 33.8 °F - 15.8 °F 48% 30.08 in 10.0 mi Calm Calm - N/A   Unknown
7:55 AM 33.8 °F - 15.8 °F 48% 30.09 in 10.0 mi Calm Calm - N/A   Unknown
8:15 AM 33.8 °F 29.6 °F 12.2 °F 41% 30.10 in 10.0 mi South 4.6 mph - N/A   Unknown
8:35 AM 35.6 °F 31.7 °F 12.2 °F 38% 30.11 in 10.0 mi South 4.6 mph - N/A   Unknown
8:55 AM 35.6 °F 32.8 °F 12.2 °F 38% 30.11 in 10.0 mi South 3.5 mph - N/A   Mostly Cloudy
9:15 AM 35.6 °F 31.7 °F 12.2 °F 38% 30.11 in 10.0 mi SSW 4.6 mph - N/A   Mostly Cloudy
9:35 AM 37.4 °F 33.8 °F 12.2 °F 36% 30.11 in 10.0 mi South 4.6 mph - N/A   Scattered Clouds
9:55 AM 37.4 °F - 12.2 °F 36% 30.11 in 10.0 mi Calm Calm - N/A   Unknown
10:15 AM 37.4 °F - 12.2 °F 36% 30.12 in 10.0 mi Calm Calm - N/A   Unknown
10:35 AM 37.4 °F 34.9 °F 12.2 °F 36% 30.12 in 10.0 mi NNW 3.5 mph - N/A   Unknown
10:55 AM 37.4 °F 34.9 °F 12.2 °F 36% 30.10 in 10.0 mi NNE 3.5 mph - N/A   Unknown
11:15 AM 39.2 °F - 12.2 °F 33% 30.11 in 10.0 mi Calm Calm - N/A   Unknown
11:35 AM 39.2 °F 35.9 °F 12.2 °F 33% 30.10 in 10.0 mi North 4.6 mph - N/A   Unknown
11:55 AM 39.2 °F 35.9 °F 12.2 °F 33% 30.08 in 10.0 mi NE 4.6 mph - N/A   Unknown
12:15 PM 41.0 °F 38.0 °F 12.2 °F 31% 30.08 in 10.0 mi East 4.6 mph - N/A   Unknown
12:35 PM 41.0 °F - 12.2 °F 31% 30.09 in 10.0 mi Calm Calm - N/A   Unknown
12:55 PM 41.0 °F 39.0 °F 12.2 °F 31% 30.07 in 10.0 mi East 3.5 mph - N/A   Unknown
1:15 PM 41.0 °F 37.1 °F 12.2 °F 31% 30.06 in 10.0 mi East 5.8 mph - N/A   Overcast
1:35 PM 41.0 °F 38.0 °F 14.0 °F 33% 30.06 in 10.0 mi East 4.6 mph - N/A   Overcast
1:55 PM 41.0 °F 37.1 °F 15.8 °F 36% 30.06 in 10.0 mi NE 5.8 mph - N/A   Overcast
2:15 PM 41.0 °F 38.0 °F 14.0 °F 33% 30.06 in 10.0 mi ENE 4.6 mph - N/A   Overcast
2:35 PM 41.0 °F 37.1 °F 15.8 °F 36% 30.06 in 10.0 mi ENE 5.8 mph - N/A   Unknown
2:55 PM 41.0 °F 38.0 °F 15.8 °F 36% 30.05 in 10.0 mi ENE 4.6 mph - N/A   Unknown
3:15 PM 41.0 °F 35.8 °F 15.8 °F 36% 30.05 in 10.0 mi ENE 8.1 mph - N/A   Overcast
3:35 PM 41.0 °F 36.4 °F 15.8 °F 36% 30.04 in 10.0 mi ENE 6.9 mph - N/A   Overcast
3:55 PM 41.0 °F 37.1 °F 15.8 °F 36% 30.04 in 10.0 mi ENE 5.8 mph - N/A   Overcast
4:15 PM 41.0 °F 36.4 °F 15.8 °F 36% 30.04 in 10.0 mi East 6.9 mph - N/A   Unknown
4:35 PM 41.0 °F 37.1 °F 17.6 °F 39% 30.04 in 10.0 mi SE 5.8 mph - N/A   Unknown
4:55 PM 39.2 °F 35.9 °F 26.6 °F 61% 30.04 in 10.0 mi ESE 4.6 mph - N/A   Overcast
5:15 PM 39.2 °F 35.0 °F 30.2 °F 70% 30.04 in 7.0 mi ENE 5.8 mph - N/A   Drizzle
5:35 PM 37.4 °F 32.1 °F 32.0 °F 81% 30.05 in 7.0 mi NE 6.9 mph - N/A   Drizzle
5:55 PM 37.4 °F 32.1 °F 33.8 °F 87% 30.04 in 10.0 mi ENE 6.9 mph - N/A   Unknown
6:15 PM 37.4 °F 34.9 °F 33.8 °F 87% 30.05 in 10.0 mi East 3.5 mph - N/A   Unknown
6:35 PM 37.4 °F 33.8 °F 33.8 °F 87% 30.06 in 10.0 mi East 4.6 mph - N/A   Unknown
6:55 PM 35.6 °F 31.7 °F 33.8 °F 93% 30.05 in 5.0 mi East 4.6 mph - N/A   Light Drizzle
7:15 PM 35.6 °F 31.7 °F 33.8 °F 93% 30.05 in 5.0 mi ESE 4.6 mph - N/A   Light Drizzle
7:35 PM 35.6 °F - 33.8 °F 93% 30.05 in 4.0 mi Calm Calm - N/A   Light Drizzle
7:55 PM 35.6 °F - 33.8 °F 93% 30.05 in 3.0 mi Calm Calm - N/A   Light Drizzle
8:15 PM 35.6 °F 32.8 °F 35.6 °F 100% 30.04 in 2.5 mi SE 3.5 mph - N/A   Drizzle
8:35 PM 35.6 °F - 35.6 °F 100% 30.04 in 2.5 mi Calm Calm - N/A   Drizzle
8:55 PM 35.6 °F 32.8 °F 35.6 °F 100% 30.03 in 2.5 mi ESE 3.5 mph - N/A   Drizzle
9:15 PM 35.6 °F 31.7 °F 35.6 °F 100% 30.03 in 2.0 mi East 4.6 mph - N/A   Drizzle
9:35 PM 35.6 °F 31.7 °F 35.6 °F 100% 30.02 in 2.5 mi ESE 4.6 mph - 0.01 in   Drizzle
9:55 PM 35.6 °F 31.7 °F 35.6 °F 100% 30.02 in 2.0 mi East 4.6 mph - 0.01 in   Drizzle
10:15 PM 35.6 °F 31.7 °F 35.6 °F 100% 30.01 in 2.0 mi East 4.6 mph - N/A   Drizzle
10:35 PM 35.6 °F 31.7 °F 35.6 °F 100% 30.00 in 2.0 mi East 4.6 mph - N/A   Drizzle
10:55 PM 35.6 °F 32.8 °F 35.6 °F 100% 30.00 in 1.8 mi ESE 3.5 mph - 0.01 in   Drizzle
11:15 PM 35.6 °F - 35.6 °F 100% 30.00 in 1.8 mi Calm Calm - N/A   Light Drizzle
11:35 PM 35.6 °F - 35.6 °F 100% 30.00 in 1.8 mi Calm Calm - N/A   Light Drizzle
11:55 PM 35.6 °F 32.8 °F 35.6 °F 100% 30.00 in 1.8 mi ESE 3.5 mph - N/A   Mist